| time (UTC) | temp C | wind direction | speed KPH | gust KPH | rain 1hr cm | rain 24hr cm | rain mn cm | humidity % | barometer mb |
| 20260502162340 | 28 | 102 | 6.4 | 9.7 | 0.00 | 0.00 | 0.00 | 21 | 1015.0 |
| 20260502161837 | 28 | 134 | 6.4 | 9.7 | 0.00 | 0.00 | 0.00 | 20 | 1015.1 |
| 20260502161333 | 28 | 277 | 3.2 | 3.2 | 0.00 | 0.00 | 0.00 | 20 | 1015.2 |
| 20260502160831 | 27 | 63 | 1.6 | 3.2 | 0.00 | 0.00 | 0.00 | 19 | 1015.1 |
| 20260502160330 | 28 | 303 | 0.0 | 1.6 | 0.00 | 0.00 | 0.00 | 19 | 1015.2 |
| 20260502152259 | 26 | 156 | 1.6 | 3.2 | 0.00 | 0.00 | 0.00 | 20 | 1014.4 |
| 20260502151756 | 26 | 185 | 3.2 | 3.2 | 0.00 | 0.00 | 0.00 | 20 | 1014.6 |
| 20260502151253 | 27 | 77 | 4.8 | 4.8 | 0.00 | 0.00 | 0.00 | 20 | 1014.3 |
| 20260502150752 | 26 | 109 | 1.6 | 3.2 | 0.00 | 0.00 | 0.00 | 20 | 1014.4 |
| 20260502150248 | 26 | 77 | 1.6 | 1.6 | 0.00 | 0.00 | 0.00 | 21 | 1014.5 |
| 20260502130630 | 19 | 324 | 0.0 | 0.0 | 0.00 | 0.00 | 0.00 | 34 | 1013.1 |
| 20260502130128 | 18 | 323 | 0.0 | 0.0 | 0.00 | 0.00 | 0.00 | 34 | 1013.2 |
| 20260502123614 | 18 | 304 | 0.0 | 0.0 | 0.00 | 0.00 | 0.00 | 40 | 1012.8 |
| 20260502123110 | 17 | 321 | 1.6 | 1.6 | 0.00 | 0.00 | 0.00 | 41 | 1012.6 |
| 20260502122607 | 17 | 349 | 1.6 | 1.6 | 0.00 | 0.00 | 0.00 | 40 | 1012.8 |
| 20260502122103 | 17 | 311 | 1.6 | 1.6 | 0.00 | 0.00 | 0.00 | 38 | 1012.6 |
| 20260502121600 | 17 | 200 | 1.6 | 1.6 | 0.00 | 0.00 | 0.00 | 38 | 1012.5 |
| 20260502121053 | 17 | 281 | 0.0 | 0.0 | 0.00 | 0.00 | 0.00 | 37 | 1012.5 |
| 20260502120548 | 17 | 291 | 0.0 | 0.0 | 0.00 | 0.00 | 0.00 | 37 | 1012.5 |
| 20260502115544 | 18 | 282 | 0.0 | 0.0 | 0.00 | 0.00 | 0.00 | 36 | 1012.4 |
| 20260502115039 | 18 | 306 | 0.0 | 0.0 | 0.00 | 0.00 | 0.00 | 34 | 1012.4 |
| 20260502114536 | 18 | 302 | 0.0 | 0.0 | 0.00 | 0.00 | 0.00 | 35 | 1012.2 |
| 20260502114033 | 18 | 268 | 0.0 | 0.0 | 0.00 | 0.00 | 0.00 | 36 | 1012.2 |
| 20260502113531 | 18 | 245 | 1.6 | 1.6 | 0.00 | 0.00 | 0.00 | 36 | 1012.3 |
| 20260502113029 | 18 | 257 | 0.0 | 0.0 | 0.00 | 0.00 | 0.00 | 37 | 1012.2 |
| 20260502112526 | 18 | 287 | 0.0 | 0.0 | 0.00 | 0.00 | 0.00 | 36 | 1012.2 |
| 20260502112024 | 18 | 288 | 0.0 | 0.0 | 0.00 | 0.00 | 0.00 | 36 | 1012.2 |
| 20260502111521 | 19 | 297 | 0.0 | 0.0 | 0.00 | 0.00 | 0.00 | 36 | 1012.0 |
| 20260502111019 | 19 | 294 | 0.0 | 0.0 | 0.00 | 0.00 | 0.00 | 36 | 1012.0 |
| 20260502110516 | 20 | 300 | 0.0 | 0.0 | 0.00 | 0.00 | 0.00 | 34 | 1012.0 |
| 20260502110014 | 20 | 298 | 0.0 | 0.0 | 0.00 | 0.00 | 0.00 | 32 | 1012.2 |
| 20260502105511 | 20 | 326 | 1.6 | 1.6 | 0.00 | 0.00 | 0.00 | 34 | 1012.2 |
| 20260502105008 | 20 | 325 | 0.0 | 0.0 | 0.00 | 0.00 | 0.00 | 34 | 1012.2 |
| 20260502104505 | 20 | 299 | 0.0 | 0.0 | 0.00 | 0.00 | 0.00 | 33 | 1012.4 |
| 20260502104003 | 20 | 286 | 0.0 | 1.6 | 0.00 | 0.00 | 0.00 | 33 | 1011.9 |
| 20260502103500 | 20 | 302 | 0.0 | 0.0 | 0.00 | 0.00 | 0.00 | 32 | 1012.0 |
| 20260502102956 | 20 | 304 | 0.0 | 1.6 | 0.00 | 0.00 | 0.00 | 32 | 1012.0 |
| 20260502102454 | 20 | 294 | 0.0 | 0.0 | 0.00 | 0.00 | 0.00 | 32 | 1011.9 |
| 20260502101950 | 20 | 288 | 0.0 | 0.0 | 0.00 | 0.00 | 0.00 | 32 | 1011.8 |
| 20260502101449 | 21 | 298 | 0.0 | 0.0 | 0.00 | 0.00 | 0.00 | 30 | 1011.9 |
| 20260502100947 | 21 | 308 | 0.0 | 0.0 | 0.00 | 0.00 | 0.00 | 30 | 1011.9 |
| 20260502100446 | 21 | 327 | 0.0 | 0.0 | 0.00 | 0.00 | 0.00 | 31 | 1011.8 |
| 20260502091414 | 21 | 301 | 0.0 | 1.6 | 0.00 | 0.00 | 0.00 | 26 | 1011.7 |
| 20260502090911 | 22 | 312 | 0.0 | 0.0 | 0.00 | 0.00 | 0.00 | 27 | 1011.7 |
| 20260502090408 | 22 | 291 | 0.0 | 1.6 | 0.00 | 0.00 | 0.00 | 26 | 1011.7 |
| 20260502071303 | 21 | 348 | 0.0 | 1.6 | 0.00 | 0.00 | 0.00 | 30 | 1011.1 |
| 20260502070801 | 21 | 315 | 1.6 | 3.2 | 0.00 | 0.00 | 0.00 | 33 | 1011.0 |
| 20260502070258 | 21 | 309 | 3.2 | 3.2 | 0.00 | 0.00 | 0.00 | 31 | 1011.1 |
| 20260502065757 | 21 | 311 | 0.0 | 0.0 | 0.00 | 0.00 | 0.00 | 30 | 1010.9 |
| 20260502065255 | 21 | 294 | 0.0 | 0.0 | 0.00 | 0.00 | 0.00 | 30 | 1010.8 |
| 20260502064753 | 21 | 281 | 0.0 | 0.0 | 0.00 | 0.00 | 0.00 | 30 | 1011.0 |
| 20260502064250 | 21 | 282 | 0.0 | 0.0 | 0.00 | 0.00 | 0.00 | 30 | 1010.8 |
| 20260502063747 | 22 | 262 | 0.0 | 0.0 | 0.00 | 0.00 | 0.00 | 29 | 1010.9 |
| 20260502063245 | 22 | 294 | 0.0 | 0.0 | 0.00 | 0.00 | 0.00 | 28 | 1010.9 |
| 20260502062742 | 22 | 329 | 1.6 | 1.6 | 0.00 | 0.00 | 0.00 | 27 | 1010.9 |
| 20260502062240 | 22 | 287 | 0.0 | 0.0 | 0.00 | 0.00 | 0.00 | 27 | 1010.6 |
| 20260502061738 | 22 | 285 | 0.0 | 0.0 | 0.00 | 0.00 | 0.00 | 26 | 1010.7 |
| 20260502061236 | 23 | 300 | 0.0 | 0.0 | 0.00 | 0.00 | 0.00 | 26 | 1010.6 |
| 20260502060730 | 23 | 264 | 0.0 | 0.0 | 0.00 | 0.00 | 0.00 | 25 | 1010.5 |
| 20260502060226 | 22 | 236 | 1.6 | 1.6 | 0.00 | 0.00 | 0.00 | 26 | 1010.5 |
| 20260502055725 | 23 | 294 | 0.0 | 0.0 | 0.00 | 0.00 | 0.00 | 27 | 1010.7 |
| 20260502055222 | 23 | 273 | 0.0 | 0.0 | 0.00 | 0.00 | 0.00 | 26 | 1010.5 |
| 20260502054721 | 23 | 220 | 1.6 | 1.6 | 0.00 | 0.00 | 0.00 | 25 | 1010.5 |
| 20260502054218 | 22 | 271 | 0.0 | 0.0 | 0.00 | 0.00 | 0.00 | 26 | 1010.4 |
| 20260502053716 | 23 | 294 | 0.0 | 0.0 | 0.00 | 0.00 | 0.00 | 29 | 1010.6 |
| 20260502053213 | 22 | 308 | 1.6 | 1.6 | 0.00 | 0.00 | 0.00 | 28 | 1010.3 |
| 20260502052711 | 22 | 280 | 0.0 | 0.0 | 0.00 | 0.00 | 0.00 | 27 | 1010.3 |
| 20260502052209 | 23 | 281 | 0.0 | 0.0 | 0.00 | 0.00 | 0.00 | 28 | 1010.2 |
| 20260502051706 | 23 | 279 | 0.0 | 0.0 | 0.00 | 0.00 | 0.00 | 26 | 1010.3 |
| 20260502051205 | 23 | 275 | 0.0 | 0.0 | 0.00 | 0.00 | 0.00 | 24 | 1010.1 |
| 20260502050700 | 23 | 287 | 0.0 | 0.0 | 0.00 | 0.00 | 0.00 | 24 | 1010.3 |
| 20260502050157 | 24 | 283 | 0.0 | 0.0 | 0.00 | 0.00 | 0.00 | 24 | 1010.2 |
| 20260502045653 | 24 | 286 | 0.0 | 0.0 | 0.00 | 0.00 | 0.00 | 23 | 1010.1 |
| 20260502045151 | 23 | 271 | 0.0 | 0.0 | 0.00 | 0.00 | 0.00 | 24 | 1010.1 |
| 20260502044647 | 23 | 288 | 0.0 | 0.0 | 0.00 | 0.00 | 0.00 | 25 | 1010.1 |
| 20260502044143 | 23 | 272 | 0.0 | 0.0 | 0.00 | 0.00 | 0.00 | 24 | 1010.2 |
| 20260502043642 | 24 | 269 | 0.0 | 0.0 | 0.00 | 0.00 | 0.00 | 23 | 1010.0 |
| 20260502043139 | 25 | 256 | 0.0 | 0.0 | 0.00 | 0.00 | 0.00 | 23 | 1010.0 |
| 20260502042638 | 25 | 272 | 0.0 | 0.0 | 0.00 | 0.00 | 0.00 | 23 | 1010.0 |
| 20260502042135 | 25 | 278 | 0.0 | 0.0 | 0.00 | 0.00 | 0.00 | 23 | 1010.0 |
| 20260502041633 | 24 | 261 | 0.0 | 0.0 | 0.00 | 0.00 | 0.00 | 22 | 1009.8 |
| 20260502041130 | 25 | 267 | 0.0 | 0.0 | 0.00 | 0.00 | 0.00 | 23 | 1010.0 |
| 20260502040627 | 25 | 276 | 0.0 | 0.0 | 0.00 | 0.00 | 0.00 | 22 | 1009.9 |
| 20260502040124 | 26 | 268 | 0.0 | 0.0 | 0.00 | 0.00 | 0.00 | 22 | 1009.8 |
| 20260502035620 | 26 | 262 | 0.0 | 0.0 | 0.00 | 0.00 | 0.00 | 21 | 1009.9 |
| 20260502035117 | 26 | 245 | 0.0 | 0.0 | 0.00 | 0.00 | 0.00 | 21 | 1009.5 |
| 20260502034615 | 26 | 236 | 0.0 | 0.0 | 0.00 | 0.00 | 0.00 | 21 | 1009.6 |
| 20260502034113 | 27 | 266 | 0.0 | 0.0 | 0.00 | 0.00 | 0.00 | 21 | 1009.6 |
| 20260502033611 | 27 | 215 | 1.6 | 1.6 | 0.00 | 0.00 | 0.00 | 20 | 1009.7 |
| 20260502033108 | 27 | 160 | 3.2 | 3.2 | 0.00 | 0.00 | 0.00 | 20 | 1009.6 |
| 20260502032604 | 27 | 173 | 1.6 | 3.2 | 0.00 | 0.00 | 0.00 | 20 | 1009.5 |
| 20260502032100 | 27 | 215 | 1.6 | 1.6 | 0.00 | 0.00 | 0.00 | 20 | 1009.4 |
| 20260502031558 | 27 | 233 | 1.6 | 1.6 | 0.00 | 0.00 | 0.00 | 20 | 1009.1 |
| 20260502031056 | 28 | 217 | 1.6 | 1.6 | 0.00 | 0.00 | 0.00 | 19 | 1009.3 |
| 20260502030555 | 28 | 227 | 1.6 | 3.2 | 0.00 | 0.00 | 0.00 | 19 | 1009.1 |
| 20260502030052 | 28 | 212 | 3.2 | 3.2 | 0.00 | 0.00 | 0.00 | 19 | 1009.1 |
| 20260502025549 | 28 | 213 | 4.8 | 4.8 | 0.00 | 0.00 | 0.00 | 18 | 1008.9 |
| 20260502025048 | 28 | 228 | 4.8 | 6.4 | 0.00 | 0.00 | 0.00 | 18 | 1008.8 |
| 20260502024545 | 28 | 215 | 3.2 | 3.2 | 0.00 | 0.00 | 0.00 | 18 | 1008.9 |
| 20260502024043 | 28 | 181 | 6.4 | 9.7 | 0.00 | 0.00 | 0.00 | 18 | 1008.6 |
| 20260502023540 | 28 | 235 | 3.2 | 6.4 | 0.00 | 0.00 | 0.00 | 18 | 1008.7 |
| 20260502023037 | 28 | 183 | 1.6 | 1.6 | 0.00 | 0.00 | 0.00 | 18 | 1008.7 |
| 20260502022534 | 29 | 208 | 3.2 | 4.8 | 0.00 | 0.00 | 0.00 | 18 | 1008.6 |
| 20260502022032 | 29 | 238 | 1.6 | 1.6 | 0.00 | 0.00 | 0.00 | 18 | 1008.5 |
| 20260502021529 | 29 | 170 | 3.2 | 4.8 | 0.00 | 0.00 | 0.00 | 18 | 1008.6 |
| 20260502021026 | 29 | 237 | 6.4 | 6.4 | 0.00 | 0.00 | 0.00 | 18 | 1008.5 |
| 20260502020523 | 29 | 254 | 4.8 | 6.4 | 0.00 | 0.00 | 0.00 | 18 | 1008.5 |
| 20260502020020 | 30 | 248 | 3.2 | 3.2 | 0.00 | 0.00 | 0.00 | 19 | 1008.4 |
| 20260502015518 | 30 | 189 | 4.8 | 4.8 | 0.00 | 0.00 | 0.00 | 18 | 1008.6 |
| 20260502015014 | 30 | 242 | 6.4 | 9.7 | 0.00 | 0.00 | 0.00 | 17 | 1008.4 |
| 20260502014511 | 30 | 263 | 1.6 | 1.6 | 0.00 | 0.00 | 0.00 | 17 | 1008.3 |
| 20260502014008 | 30 | 250 | 1.6 | 1.6 | 0.00 | 0.00 | 0.00 | 17 | 1008.4 |
| 20260502013503 | 30 | 214 | 6.4 | 9.7 | 0.00 | 0.00 | 0.00 | 18 | 1008.5 |
| 20260502013000 | 30 | 246 | 1.6 | 3.2 | 0.00 | 0.00 | 0.00 | 18 | 1008.3 |
| 20260502012457 | 30 | 213 | 4.8 | 4.8 | 0.00 | 0.00 | 0.00 | 18 | 1008.4 |
| 20260502011955 | 31 | 229 | 8.0 | 9.7 | 0.00 | 0.00 | 0.00 | 17 | 1008.4 |
| 20260502011451 | 31 | 254 | 3.2 | 3.2 | 0.00 | 0.00 | 0.00 | 17 | 1008.2 |
| 20260502010948 | 31 | 231 | 3.2 | 4.8 | 0.00 | 0.00 | 0.00 | 17 | 1008.6 |
| 20260502010445 | 31 | 271 | 0.0 | 0.0 | 0.00 | 0.00 | 0.00 | 17 | 1008.5 |
| 20260502005941 | 31 | 170 | 4.8 | 6.4 | 0.00 | 0.00 | 0.00 | 17 | 1008.4 |
| 20260502005439 | 31 | 189 | 3.2 | 4.8 | 0.00 | 0.00 | 0.00 | 17 | 1008.6 |
| 20260502004937 | 31 | 233 | 4.8 | 4.8 | 0.00 | 0.00 | 0.00 | 17 | 1008.5 |
| 20260502004432 | 31 | 233 | 6.4 | 6.4 | 0.00 | 0.00 | 0.00 | 18 | 1008.4 |
| 20260502003929 | 31 | 211 | 4.8 | 4.8 | 0.00 | 0.00 | 0.00 | 18 | 1008.6 |
| 20260502003427 | 30 | 176 | 3.2 | 4.8 | 0.00 | 0.00 | 0.00 | 19 | 1008.4 |
| 20260502002923 | 31 | 240 | 3.2 | 3.2 | 0.00 | 0.00 | 0.00 | 19 | 1008.6 |
| 20260502002420 | 31 | 220 | 4.8 | 4.8 | 0.00 | 0.00 | 0.00 | 19 | 1008.7 |
| 20260502001917 | 31 | 192 | 4.8 | 4.8 | 0.00 | 0.00 | 0.00 | 19 | 1008.6 |
| 20260502001415 | 31 | 219 | 4.8 | 4.8 | 0.00 | 0.00 | 0.00 | 19 | 1008.6 |
| 20260502000913 | 31 | 232 | 4.8 | 6.4 | 0.00 | 0.00 | 0.00 | 19 | 1008.8 |
| 20260502000411 | 31 | 249 | 8.0 | 11.3 | 0.00 | 0.00 | 0.00 | 20 | 1008.6 |
| 20260501235906 | 31 | 230 | 6.4 | 9.7 | 0.00 | 0.00 | 0.00 | 19 | 1008.7 |
| 20260501235402 | 31 | 199 | 6.4 | 9.7 | 0.00 | 0.00 | 0.00 | 20 | 1008.7 |
| 20260501234857 | 31 | 278 | 1.6 | 1.6 | 0.00 | 0.00 | 0.00 | 20 | 1008.7 |
| 20260501234355 | 31 | 225 | 4.8 | 4.8 | 0.00 | 0.00 | 0.00 | 20 | 1008.8 |
| 20260501233853 | 31 | 212 | 9.7 | 12.9 | 0.00 | 0.00 | 0.00 | 20 | 1008.7 |
| 20260501233350 | 31 | 248 | 3.2 | 4.8 | 0.00 | 0.00 | 0.00 | 19 | 1008.9 |
| 20260501232846 | 30 | 344 | 3.2 | 4.8 | 0.00 | 0.00 | 0.00 | 20 | 1008.8 |
| 20260501232344 | 31 | 247 | 8.0 | 9.7 | 0.00 | 0.00 | 0.00 | 20 | 1008.8 |
| 20260501231841 | 31 | 211 | 6.4 | 9.7 | 0.00 | 0.00 | 0.00 | 20 | 1008.7 |
| 20260501231339 | 31 | 173 | 3.2 | 4.8 | 0.00 | 0.00 | 0.00 | 20 | 1008.8 |
| 20260501230837 | 31 | 259 | 6.4 | 6.4 | 0.00 | 0.00 | 0.00 | 21 | 1008.8 |
| 20260501230336 | 31 | 298 | 1.6 | 3.2 | 0.00 | 0.00 | 0.00 | 21 | 1008.9 |
| 20260501225832 | 31 | 233 | 6.4 | 6.4 | 0.00 | 0.00 | 0.00 | 21 | 1009.0 |
| 20260501225330 | 31 | 232 | 3.2 | 4.8 | 0.00 | 0.00 | 0.00 | 20 | 1009.0 |
| 20260501224826 | 30 | 300 | 3.2 | 3.2 | 0.00 | 0.00 | 0.00 | 20 | 1009.0 |
| 20260501224323 | 30 | 240 | 4.8 | 4.8 | 0.00 | 0.00 | 0.00 | 20 | 1009.1 |
| 20260501223820 | 31 | 242 | 6.4 | 6.4 | 0.00 | 0.00 | 0.00 | 20 | 1009.3 |
| 20260501223316 | 31 | 280 | 1.6 | 1.6 | 0.00 | 0.00 | 0.00 | 20 | 1009.5 |
| 20260501222812 | 31 | 15 | 1.6 | 3.2 | 0.00 | 0.00 | 0.00 | 18 | 1009.6 |
| 20260501222309 | 30 | 242 | 1.6 | 1.6 | 0.00 | 0.00 | 0.00 | 18 | 1009.6 |
| 20260501221806 | 31 | 217 | 4.8 | 6.4 | 0.00 | 0.00 | 0.00 | 18 | 1009.7 |
| 20260501221303 | 30 | 248 | 0.0 | 1.6 | 0.00 | 0.00 | 0.00 | 18 | 1009.9 |
| 20260501220801 | 30 | 239 | 4.8 | 4.8 | 0.00 | 0.00 | 0.00 | 18 | 1009.8 |
| 20260501220258 | 30 | 202 | 9.7 | 11.3 | 0.00 | 0.00 | 0.00 | 18 | 1009.9 |
| 20260501215755 | 30 | 210 | 4.8 | 6.4 | 0.00 | 0.00 | 0.00 | 17 | 1010.1 |
| 20260501215250 | 30 | 219 | 8.0 | 9.7 | 0.00 | 0.00 | 0.00 | 18 | 1010.1 |
| 20260501214745 | 30 | 188 | 3.2 | 6.4 | 0.00 | 0.00 | 0.00 | 18 | 1010.1 |
| 20260501214242 | 30 | 279 | 8.0 | 11.3 | 0.00 | 0.00 | 0.00 | 19 | 1010.3 |
| 20260501213738 | 30 | 280 | 1.6 | 1.6 | 0.00 | 0.00 | 0.00 | 20 | 1010.2 |
| 20260501213234 | 30 | 256 | 8.0 | 9.7 | 0.00 | 0.00 | 0.00 | 20 | 1010.4 |
| 20260501212731 | 30 | 202 | 8.0 | 11.3 | 0.00 | 0.00 | 0.00 | 20 | 1010.4 |
| 20260501212227 | 30 | 299 | 3.2 | 3.2 | 0.00 | 0.00 | 0.00 | 20 | 1010.6 |
| 20260501211724 | 30 | 247 | 8.0 | 11.3 | 0.00 | 0.00 | 0.00 | 20 | 1010.5 |
| 20260501211221 | 30 | 269 | 1.6 | 1.6 | 0.00 | 0.00 | 0.00 | 21 | 1010.7 |
| 20260501210718 | 29 | 281 | 6.4 | 6.4 | 0.00 | 0.00 | 0.00 | 22 | 1010.8 |
| 20260501210215 | 29 | 288 | 6.4 | 9.7 | 0.00 | 0.00 | 0.00 | 21 | 1010.8 |
| 20260501205712 | 28 | 223 | 4.8 | 4.8 | 0.00 | 0.00 | 0.00 | 22 | 1010.8 |
| 20260501205208 | 29 | 141 | 6.4 | 9.7 | 0.00 | 0.00 | 0.00 | 22 | 1010.9 |
| 20260501204706 | 28 | 221 | 6.4 | 6.4 | 0.00 | 0.00 | 0.00 | 23 | 1010.9 |
| 20260501204202 | 29 | 184 | 3.2 | 4.8 | 0.00 | 0.00 | 0.00 | 22 | 1011.0 |
| 20260501203658 | 29 | 173 | 4.8 | 9.7 | 0.00 | 0.00 | 0.00 | 22 | 1011.0 |
| 20260501203156 | 28 | 18 | 3.2 | 4.8 | 0.00 | 0.00 | 0.00 | 23 | 1011.0 |
| 20260501202653 | 28 | 339 | 3.2 | 4.8 | 0.00 | 0.00 | 0.00 | 22 | 1011.2 |
| 20260501202149 | 28 | 271 | 4.8 | 6.4 | 0.00 | 0.00 | 0.00 | 22 | 1011.2 |
| 20260501201647 | 28 | 218 | 4.8 | 6.4 | 0.00 | 0.00 | 0.00 | 22 | 1011.2 |
| 20260501201143 | 28 | 72 | 3.2 | 4.8 | 0.00 | 0.00 | 0.00 | 23 | 1011.3 |
| 20260501200640 | 28 | 157 | 9.7 | 12.9 | 0.00 | 0.00 | 0.00 | 23 | 1011.4 |
| 20260501200137 | 29 | 261 | 3.2 | 6.4 | 0.00 | 0.00 | 0.00 | 23 | 1011.5 |
| 20260501195635 | 27 | 270 | 1.6 | 1.6 | 0.00 | 0.00 | 0.00 | 24 | 1011.4 |
| 20260501195130 | 28 | 68 | 1.6 | 3.2 | 0.00 | 0.00 | 0.00 | 24 | 1011.3 |
| 20260501194626 | 27 | 264 | 3.2 | 4.8 | 0.00 | 0.00 | 0.00 | 24 | 1011.5 |
| 20260501194127 | 28 | 248 | 11.3 | 16.1 | 0.00 | 0.00 | 0.00 | 24 | 1011.8 |
| 20260501193624 | 27 | 293 | 1.6 | 3.2 | 0.00 | 0.00 | 0.00 | 26 | 1011.8 |
| 20260501193123 | 27 | 186 | 0.0 | 1.6 | 0.00 | 0.00 | 0.00 | 25 | 1011.7 |
| 20260501192619 | 27 | 225 | 4.8 | 6.4 | 0.00 | 0.00 | 0.00 | 26 | 1011.9 |
| 20260501192117 | 27 | 145 | 12.9 | 14.5 | 0.00 | 0.00 | 0.00 | 25 | 1011.8 |
| 20260501191614 | 27 | 127 | 6.4 | 11.3 | 0.00 | 0.00 | 0.00 | 25 | 1012.2 |
| 20260501191111 | 28 | 237 | 6.4 | 6.4 | 0.00 | 0.00 | 0.00 | 25 | 1012.0 |
| 20260501190608 | 27 | 211 | 1.6 | 1.6 | 0.00 | 0.00 | 0.00 | 26 | 1012.2 |
| 20260501185559 | 27 | 318 | 1.6 | 1.6 | 0.00 | 0.00 | 0.00 | 27 | 1012.4 |
| 20260501185055 | 27 | 256 | 6.4 | 9.7 | 0.00 | 0.00 | 0.00 | 28 | 1012.3 |
| 20260501184551 | 26 | 283 | 6.4 | 9.7 | 0.00 | 0.00 | 0.00 | 28 | 1012.6 |
| 20260501184046 | 26 | 179 | 6.4 | 12.9 | 0.00 | 0.00 | 0.00 | 28 | 1012.4 |
| 20260501183543 | 26 | 191 | 6.4 | 6.4 | 0.00 | 0.00 | 0.00 | 27 | 1012.6 |
| 20260501183040 | 26 | 191 | 3.2 | 6.4 | 0.00 | 0.00 | 0.00 | 28 | 1012.4 |
| 20260501182536 | 27 | 208 | 8.0 | 11.3 | 0.00 | 0.00 | 0.00 | 27 | 1012.7 |
| 20260501182033 | 26 | 317 | 0.0 | 1.6 | 0.00 | 0.00 | 0.00 | 29 | 1012.6 |
| 20260501181531 | 27 | 222 | 6.4 | 9.7 | 0.00 | 0.00 | 0.00 | 28 | 1013.1 |
| 20260501181027 | 26 | 274 | 3.2 | 3.2 | 0.00 | 0.00 | 0.00 | 28 | 1013.1 |
| 20260501180525 | 26 | 272 | 4.8 | 4.8 | 0.00 | 0.00 | 0.00 | 29 | 1013.0 |
| 20260501180021 | 26 | 245 | 4.8 | 6.4 | 0.00 | 0.00 | 0.00 | 30 | 1013.1 |
| 20260501175518 | 26 | 228 | 4.8 | 6.4 | 0.00 | 0.00 | 0.00 | 30 | 1013.0 |
| 20260501175015 | 26 | 228 | 6.4 | 6.4 | 0.00 | 0.00 | 0.00 | 28 | 1013.0 |
| 20260501174512 | 26 | 260 | 3.2 | 4.8 | 0.00 | 0.00 | 0.00 | 29 | 1013.1 |
| 20260501174010 | 26 | 143 | 4.8 | 4.8 | 0.00 | 0.00 | 0.00 | 29 | 1013.2 |
| 20260501173507 | 26 | 233 | 4.8 | 4.8 | 0.00 | 0.00 | 0.00 | 30 | 1013.2 |
| 20260501173003 | 26 | 204 | 3.2 | 6.4 | 0.00 | 0.00 | 0.00 | 29 | 1013.3 |
| 20260501172458 | 25 | 146 | 8.0 | 9.7 | 0.00 | 0.00 | 0.00 | 30 | 1013.3 |
| 20260501171954 | 25 | 198 | 6.4 | 11.3 | 0.00 | 0.00 | 0.00 | 31 | 1013.1 |
| 20260501171450 | 26 | 207 | 6.4 | 6.4 | 0.00 | 0.00 | 0.00 | 30 | 1013.1 |
| 20260501170947 | 26 | 201 | 3.2 | 3.2 | 0.00 | 0.00 | 0.00 | 30 | 1013.3 |
| 20260501170444 | 25 | 76 | 1.6 | 1.6 | 0.00 | 0.00 | 0.00 | 30 | 1013.2 |
| 20260501165942 | 25 | 194 | 1.6 | 1.6 | 0.00 | 0.00 | 0.00 | 31 | 1013.2 |
| 20260501165439 | 25 | 241 | 3.2 | 4.8 | 0.00 | 0.00 | 0.00 | 32 | 1013.3 |
| 20260501164937 | 25 | 207 | 3.2 | 6.4 | 0.00 | 0.00 | 0.00 | 31 | 1013.3 |
| 20260501164435 | 25 | 233 | 1.6 | 1.6 | 0.00 | 0.00 | 0.00 | 31 | 1013.1 |
| 20260501163931 | 25 | 126 | 1.6 | 3.2 | 0.00 | 0.00 | 0.00 | 31 | 1013.5 |
| 20260501163427 | 25 | 124 | 3.2 | 3.2 | 0.00 | 0.00 | 0.00 | 31 | 1013.2 |
| 20260501162924 | 25 | 245 | 3.2 | 4.8 | 0.00 | 0.00 | 0.00 | 31 | 1013.1 |
| 20260501162420 | 25 | 161 | 4.8 | 6.4 | 0.00 | 0.00 | 0.00 | 33 | 1013.3 |